7 * 24
多渠道服务支持
MOLNIYA 3-8(闪电3-8)是苏联/独联体(CIS)第三代闪电系列通信卫星,1977年10月28日发射升空。卫星基于KAUR-2平台建造,运行在12小时周期的大椭圆闪电轨道,可覆盖高纬度区域,主要承担民用通信、电视分发业务,也可支持军事通信,为独联体境内及北半球多国提供稳定通信服务,是冷战时期苏联通信卫星网络的重要组成部分。
| 数据来源 | 国际轨道数据 |
| 星历时间: | 2026-09-09T03:39:02+0800 2天前 查看轨道信息 |
| 半长轴: | 26539.728km |
| 偏心率: | 0.6697817 |
| 轨道倾角: | 63.804° |
| 近地点辐角 | 275.744° |
| 升交点赤经 | 168.609° |
| 平近点角 | 17.287° |
| 近地点: | 2385.766km |
| 远地点: | 37937.416km |
| 周期: | 717.141分钟 |
| 每日圈数: | 2.007974 |